Weather Roundup
Issued by NWS

Home | Current Version | Previous Version | Graphics & Text | Print | Product List | Glossary Off
Versions: 1 2 3 4 5 6 7 8 9 10 11 12 13 14 15 16 17 18 19 20 21 22 23 24 25 26 27 28 29 30 31 32 33 34 35 36 37 38 39 40 41 42 43 44 45 46 47 48 49 50

000
NZUS93 KARX 270859
HRRWXR

CURRENT HOURLY OBSERVATIONS ACROSS
MUCH OF THE UPPER MISSISSIPPI VALLEY
NATIONAL WEATHER SERVICE LA CROSSE WI
400 AM CDT FRI MAR 27 2015


...SOUTHEAST MINNESOTA...


CITY           SKY/WX    TMP DP  RH WIND       PRES   REMARKS
ROCHESTER      CLEAR     16   6  65 N7        30.19R WCI   6
ROCHESTER/MAYO FAIR      20  10  63 CALM      30.20R
WINONA         CLEAR     25  10  54 CALM      30.23S
AUSTIN         CLEAR     18   9  68 CALM      30.19S
ALBERT LEA     CLEAR     19  14  79 N6        30.20S WCI  11
DODGE CENTER   PTCLDY    18   7  62 N5        30.19S WCI  11
PRESTON        CLEAR     16   7  66 N6        30.18S WCI   8
OWATONNA       CLEAR     10   7  85 CALM      30.22R
FARIBAULT      CLEAR     12   7  79 CALM      30.23R
$$

...ELSEWHERE IN MINNESOTA...


CITY           SKY/WX    TMP DP  RH WIND       PRES   REMARKS
MINNEAPOLIS    CLEAR     21   3  45 N7        30.26R WCI  12
INTNL FALLS    NOT AVBL
DULUTH         FAIR      13   2  61 N5        30.21S WCI   5
RED WING       CLEAR     19   7  58 N5        30.23R WCI  13
REDWOOD FALLS  FAIR      21   9  59 N6        30.26F WCI  13
MANKATO        CLEAR     18   9  68 N8        30.23S WCI   7
WORTHINGTON    CLEAR     16   9  73 N8        30.23F WCI   5
FAIRMONT       CLEAR     21  12  68 NW7       30.22S WCI  13
$$

...SOUTHWEST WISCONSIN...


CITY           SKY/WX    TMP DP  RH WIND       PRES   REMARKS
LA CROSSE      CLEAR     22   7  52 N3        30.22R
PRAIRIE DU CHI CLEAR     26  10  50 N6        30.18S WCI  19
BOSCOBEL       CLEAR     23   7  50 N7        30.19R WCI  15
LONE ROCK      NOT AVBL
PLATTEVILLE    CLEAR     24  13  63 N10       30.13S WCI  13
FORT MC COY    CLEAR     13   6  74 CALM      30.21S
VIROQUA        FAIR      18   8  65 NE6       30.16S WCI   9
WIS DELLS      NOT AVBL
$$

...ELSEWHERE IN WISCONSIN...


CITY           SKY/WX    TMP DP  RH WIND       PRES   REMARKS
MILWAUKEE      MOCLDY    22  10  60 N18G25    30.10S WCI   7
MADISON        CLEAR     20   8  60 N10       30.14S WCI   9
GREEN BAY      CLEAR     19   9  65 NW12      30.16S WCI   7
EAU CLAIRE     NOT AVBL
BLACK RVR FLS  FAIR      10   6  85 CALM      30.20R
MEDFORD        PTCLDY    10   6  82 CALM      30.15R
WAUSAU         PTCLDY    15   7  70 N8        30.15R WCI   4
WIS RAPIDS     MOCLDY    14   5  67 CALM      30.18S
MARSHFIELD     CLEAR     14   6  70 N9        30.15S WCI   2
RICE LAKE      CLEAR     19   6  55 N6        30.23R WCI  11
$$

...NORTHEAST IOWA...


CITY           SKY/WX    TMP DP  RH WIND       PRES   REMARKS
DECORAH        CLEAR     23  12  63 NE7       30.16R WCI  15
MASON CITY     CLEAR     19  15  84 N7        30.21R WCI  10
CHARLES CITY   CLEAR     23  16  74 N9        30.18S WCI  13
OELWEIN        CLEAR     25  18  74 N12       30.16R WCI  14
$$

...ELSEWHERE IN IOWA...


CITY           SKY/WX    TMP DP  RH WIND       PRES   REMARKS
DES MOINES     MOCLDY    31  14  49 NE14      30.20R WCI  21
IOWA CITY      CLOUDY    31  22  69 NW8       30.15F WCI  23
FORT DODGE     CLEAR     25  16  68 N6        30.21S WCI  18
$$

...NORTHERN ILLINOIS...


CITY           SKY/WX    TMP DP  RH WIND       PRES   REMARKS
CHICAGO-OHARE  LGT SNOW  27  23  85 NE9       30.07R FOG     WCI  18
CHICAGO-MIDWAY LGT SNOW  30  25  81 NE7       30.08R FOG     WCI  23
MOLINE         CLOUDY    31  22  69 N6        30.11S WCI  25
ROCKFORD       PTCLDY    26  13  57 N10       30.13R WCI  16
PEORIA         CLEAR     29  21  72 N6        30.09S WCI  23
$$

NOTE: "FAIR" INDICATES FEW OR NO CLOUDS BELOW 12,000 FEET WITH NO
SIGNIFICANT WEATHER AND/OR OBSTRUCTIONS TO VISIBILITY. WIND
SPEEDS ARE IN MILES-PER-HOUR.



USA.gov is the U.S. government's official web portal to all federal, state and local government web resources and services.